Location: Newark
(50.4348°N, 30.5552°E)
Time: 03:27:22
(UTC+00:00)

Altair - Pass Details

Date: 28 January 2020
Orbit: 1502 x 1682 km, 47.2° (Epoch: 17 February)

Event Time Altitude Azimuth Distance (km) Brightness Sun altitude
Rises 12:49:41 0° 289° (WNW) 4,940 10.4 12.9°
Reaches altitude 10° 12:53:33 10° 277° (W) 3,942 10.2 12.5°
Maximum altitude 13:01:14 26° 227° (SW) 2,860 10.9 11.7°
Drops below altitude 10° 13:08:47 10° 177° (S) 3,855 10.4 10.9°
Sets 13:12:33 0° 165° (SSE) 4,810 10.6 10.5°
